To NAV CANADA Home Page Login to a new session Search on AWWS site Feedback and Comments Disclaimer Vers la page française équivalente Tips FAQ What's new on the site To the Forecasts and Observations / NOTAM section To "File a Flight Plan" website Publications and other links Update of the User's profile FIC Telephone Numbers My Weather Data Folder Route Weather Data Regional Weather Data Local Weather Data To the Forecasts and Observations / NOTAM section
Request Generated 06/26/2017 at 22:27:41 UTC . Weather information available at that time is displayed.

METAR/TAF

KANGIQSUALUJJUAQ (GEORGES RIVER)/QC    

LWIS CYLU 262200Z AUTO 29013KT 00/M00 A2934=
METAR CYLU 262100Z 28009G15KT 250V310 6SM -DZ BR BCFG OVC004 00/M00
A2932 RMK ST8 LAST STFD OBS/NEXT 271200UTC SLP935=
SPECI CYLU 262028Z 26007KT 240V300 6SM -DZ BR BCFG OVC003 00/M01
A2932 RMK ST8 SLP933=
METAR CYLU 262000Z 27011G17KT 210V290 6SM -DZ BKN005 OVC008 01/M01
A2931 RMK ST6SC2 SLP931=

CYLU - No TAF is issued for this station

Your time UTC time
Weather data provided by Environment Canada and NAV CANADA